User: anonymous   Login
Location: Sternwarte Stuttgart
(48.7670°N, 9.1830°E)
Time: 01:07:25
(UTC+02:00)
Language:

Lacrosse 5 rocket - Orbit

View from above orbital plane
View from above orbital plane
View from above satellite
View from above satellite

Ground track
Ground track

The orbit data is extracted from the following two-line orbital elements,

1 28647U 05016B   19290.06225186  .00000150  00000-0  27007-4 0  9996
2 28647  56.9960 154.2031 0130144  63.3536 298.0762 15.05789808 23144
Epoch (UTC): 17 October 2019 01:29:38
Eccentricity: 0.0130144
inclination: 56.9960°
perigee height: 459 km
apogee height: 639 km
right ascension of ascending node: 154.2031°
argument of perigee: 63.3536°
revolutions per day: 15.05789808
mean anomaly at epoch: 298.0762°
orbit number at epoch: 2314

The dashed part of the orbit path shows where the satellite is in the earth's shadow,  

DLR